Location: Newark
(22.3060°N, 114.2134°E)
Time: 21:16:16
(UTC+00:00)

Vanguard 1 Rocket - Pass Details

Date: 10 August 2021
Orbit: 650 x 4226 km, 34.3° (Epoch: 15 September)

Event Time Altitude Azimuth Distance (km) Brightness Sun altitude
Exits shadow 19:04:48 15° 174° (S) 5,885 11.2 -36.3°
Maximum altitude 19:18:04 26° 132° (SE) 5,824 11.4 -34.0°
Drops below altitude 10° 19:37:02 10° 85° (E) 7,382 12.7 -30.4°
Sets 19:44:12 0° 75° (ENE) 8,211 13.3 -29.1°
